Location: Aiyekoto
(8.4333°N, 4.3667°E)
Time: 12:45:52
(UTC+00:00)

ADEOS - Pass Details

Date: 09 October 2020
Orbit: 792 x 794 km, 98.9° (Epoch: 27 October)

Event Time Altitude Azimuth Distance (km) Brightness Sun altitude
Rises 03:58:14 0° 9° (N) 3,280 6.8 -23.5°
Reaches altitude 10° 04:00:33 10° 7° (N) 2,352 6.0 -22.9°
Maximum altitude 04:05:43 73° 283° (WNW) 829 3.4 -21.6°
Drops below altitude 10° 04:10:54 10° 199° (SSW) 2,356 5.9 -20.4°
Sets 04:13:14 0° 197° (SSW) 3,286 6.6 -19.8°
